KX4KY-13 Weather Reports


time (UTC)temp
C
wind
direction
speed
KPH
gust
KPH
rain 1hr
cm
rain 24hr
cm
rain mn
cm
humidity
%
barometer
mb
20260505102118 11 15 1.6 3.2 0.00 0.00 0.00 69 1016.4
20260505101017 11 29 0.0 3.2 0.00 0.00 0.00 68 1016.3
20260505100017 11 7 0.0 1.6 0.00 0.00 0.00 67 1016.3
20260505095039 12 25 0.0 3.2 0.00 0.00 0.00 65 1016.2
20260505094017 12 341 0.0 1.6 0.00 0.00 0.00 63 1016.2
20260505093018 12 274 0.0 1.6 0.00 0.00 0.00 62 1016.2
20260505092039 12 28 0.0 0.0 0.00 0.00 0.00 61 1016.3
20260505091019 12 352 0.0 1.6 0.00 0.00 0.00 60 1016.0
20260505090018 13 14 0.0 1.6 0.00 0.00 0.00 59 1015.9
20260505085018 13 11 0.0 3.2 0.00 0.00 0.00 58 1015.9
20260505084019 13 3 3.2 4.8 0.00 0.00 0.00 57 1015.7
20260505083022 13 19 3.2 11.3 0.00 0.00 0.00 56 1015.5
20260505082015 13 28 4.8 12.9 0.00 0.00 0.00 56 1015.4
20260505081016 13 26 3.2 14.5 0.00 0.00 0.00 56 1015.4
20260505080016 13 19 1.6 8.0 0.00 0.00 0.00 56 1015.5
20260505075019 13 19 3.2 8.0 0.00 0.00 0.00 57 1015.6
20260505074039 13 29 1.6 4.8 0.00 0.00 0.00 58 1015.7
20260505073020 13 43 1.6 6.4 0.00 0.00 0.00 58 1015.7
20260505072016 13 18 1.6 9.7 0.00 0.00 0.00 59 1015.8
20260505071016 13 17 3.2 9.7 0.00 0.00 0.00 60 1015.8
20260505070019 13 12 1.6 6.4 0.00 0.00 0.00 60 1015.9
20260505065016 13 20 3.2 9.7 0.00 0.00 0.00 60 1015.9
20260505064035 13 26 3.2 6.4 0.00 0.00 0.00 61 1016.0
20260505063017 13 19 3.2 8.0 0.00 0.00 0.00 61 1016.0
20260505062020 13 17 1.6 3.2 0.00 0.00 0.00 61 1016.1
20260505061120 13 20 3.2 6.4 0.00 0.00 0.00 62 1016.1
20260505060020 13 14 1.6 4.8 0.00 0.00 0.00 61 1016.2
20260505055018 13 20 4.8 11.3 0.00 0.00 0.00 61 1016.2
20260505054017 14 24 4.8 11.3 0.00 0.00 0.00 60 1016.2
20260505053017 14 29 3.2 12.9 0.00 0.00 0.00 60 1016.2
20260505052018 14 16 1.6 8.0 0.00 0.00 0.00 60 1016.3
20260505051038 14 17 3.2 11.3 0.00 0.00 0.00 60 1016.3
20260505041021 14 328 0.0 1.6 0.00 0.00 0.00 59 1016.7
20260505040020 14 35 1.6 8.0 0.00 0.00 0.00 59 1016.7
20260505035021 14 10 1.6 6.4 0.00 0.00 0.00 58 1016.7
20260505034016 15 356 1.6 3.2 0.00 0.00 0.00 58 1016.8
20260505033016 15 340 1.6 3.2 0.00 0.00 0.00 57 1016.9
20260505032017 15 355 1.6 3.2 0.00 0.00 0.00 56 1016.8
20260505031016 15 350 1.6 3.2 0.00 0.00 0.00 55 1016.8
20260505030017 15 43 0.0 3.2 0.00 0.00 0.00 55 1016.8
20260505025020 15 352 1.6 4.8 0.00 0.00 0.00 54 1016.8
20260505024017 16 8 1.6 3.2 0.00 0.00 0.00 54 1016.8
20260505023018 16 359 1.6 4.8 0.00 0.00 0.00 53 1016.7
20260505022017 16 14 1.6 4.8 0.00 0.00 0.00 53 1016.6
20260505021037 16 1 1.6 3.2 0.00 0.00 0.00 54 1016.6
20260505020019 16 18 1.6 4.8 0.00 0.00 0.00 53 1016.6
20260505015017 16 10 1.6 4.8 0.00 0.00 0.00 53 1016.5
20260505014017 16 6 1.6 6.4 0.00 0.00 0.00 53 1016.4
20260505013017 16 9 1.6 3.2 0.00 0.00 0.00 53 1016.4
20260505012018 16 12 1.6 3.2 0.00 0.00 0.00 52 1016.3
20260505011018 16 9 1.6 4.8 0.00 0.00 0.00 52 1016.2
20260505010018 16 4 1.6 4.8 0.00 0.00 0.00 52 1016.1
20260505005018 16 7 1.6 4.8 0.00 0.00 0.00 51 1016.1
20260505004039 16 357 1.6 4.8 0.00 0.00 0.00 51 1016.1
20260505003018 16 4 1.6 4.8 0.00 0.00 0.00 50 1016.0
20260505002016 16 1 1.6 4.8 0.00 0.00 0.00 50 1016.0
20260505001017 16 6 1.6 6.4 0.00 0.00 0.00 49 1016.0
20260505000037 17 14 1.6 6.4 0.00 0.00 0.00 47 1015.9
20260504235016 17 20 1.6 11.3 0.00 0.00 0.00 46 1015.8
20260504234036 17 31 4.8 9.7 0.00 0.00 0.00 44 1015.7
20260504233016 17 28 3.2 14.5 0.00 0.00 0.00 44 1015.7
20260504232016 18 30 3.2 9.7 0.00 0.00 0.00 45 1015.7
20260504231017 18 323 3.2 6.4 0.00 0.00 0.00 45 1015.6
20260504230018 18 10 1.6 6.4 0.00 0.00 0.00 45 1015.5
20260504225017 18 350 1.6 4.8 0.00 0.00 0.00 44 1015.5
20260504224017 18 358 1.6 4.8 0.00 0.00 0.00 43 1015.6
20260504223017 19 16 1.6 4.8 0.00 0.00 0.00 43 1015.6
20260504222018 19 21 1.6 3.2 0.00 0.00 0.00 43 1015.7
20260504221019 19 97 1.6 6.4 0.00 0.00 0.00 43 1015.7
20260504220019 20 35 1.6 4.8 0.00 0.00 0.00 42 1015.7
20260504215017 20 51 1.6 4.8 0.00 0.00 0.00 41 1015.6
20260504214040 20 74 3.2 8.0 0.00 0.00 0.00 41 1015.5
20260504213018 20 16 3.2 6.4 0.00 0.00 0.00 41 1015.6
20260504212018 20 16 1.6 6.4 0.00 0.00 0.00 41 1015.6
20260504211018 20 104 1.6 6.4 0.00 0.00 0.00 40 1015.6
20260504210018 21 36 1.6 8.0 0.00 0.00 0.00 40 1015.8
20260504205018 21 38 1.6 9.7 0.00 0.00 0.00 39 1015.9
20260504204016 21 101 3.2 8.0 0.00 0.00 0.00 38 1015.9
20260504203057 21 81 3.2 11.3 0.00 0.00 0.00 38 1015.5
20260504202016 21 146 3.2 8.0 0.00 0.00 0.00 37 1015.6
20260504201016 21 96 1.6 8.0 0.00 0.00 0.00 38 1015.6
20260504200017 21 14 1.6 6.4 0.00 0.00 0.00 36 1015.8
20260504195017 21 126 1.6 6.4 0.00 0.00 0.00 32 1016.1
20260504194016 22 147 1.6 6.4 0.00 0.00 0.00 33 1015.9
20260504193018 21 99 3.2 9.7 0.00 0.00 0.00 34 1016.0
20260504192017 21 111 3.2 11.3 0.00 0.00 0.00 34 1016.2
20260504191017 21 69 1.6 4.8 0.00 0.00 0.00 35 1016.2
20260504190017 21 40 3.2 9.7 0.00 0.00 0.00 36 1016.3
20260504185017 21 5 1.6 6.4 0.00 0.00 0.00 37 1016.4
20260504184019 21 130 4.8 11.3 0.00 0.00 0.00 38 1016.5
20260504183017 21 120 4.8 9.7 0.00 0.00 0.00 37 1016.6
20260504182018 21 122 1.6 6.4 0.00 0.00 0.00 38 1016.5
20260504181018 21 117 3.2 9.7 0.00 0.00 0.00 39 1016.7
20260504180018 21 139 1.6 4.8 0.00 0.00 0.00 39 1016.7
20260504175019 21 123 3.2 6.4 0.00 0.00 0.00 39 1016.9
20260504174019 21 19 1.6 6.4 0.00 0.00 0.00 37 1016.9
20260504173018 21 117 3.2 9.7 0.00 0.00 0.00 39 1017.0
20260504172018 20 70 1.6 4.8 0.00 0.00 0.00 39 1017.0
20260504171016 21 142 3.2 12.9 0.00 0.00 0.00 38 1017.0
20260504151017 18 104 1.6 4.8 0.00 0.00 0.00 38 1018.0
20260504141018 17 120 1.6 8.0 0.00 0.00 0.00 40 1017.6